Date String (YYYY-MM-DD hh:mm:ss) UTC,Instrument flags,Ambient pressure (hPa),Sample flow (lpm),Bypass flow (lpm),Sample temperature (°C),Ambient temperature (°C),ASC tube jacket temperature (°C),LED temperature (°C),Box temperature (°C),Sample RH (%),Span deviation,Mass concentration (μg/m³),Mass concentration (μg/m³),Mass concentration (μg/m³)
DateTimeUTC,F1_M11,P_M11,Q1_M11,Q2_M11,T1_M11,T2_M11,T3_M11,T4_M11,T5_M11,U1_M11,ZSPAN_M11,X2_M11,X0_M11,X1_M11
2022-12-28 13:00:00,,0807.4,5.00,0.00,22.9,21.5,00.0,31.9,24.6,14.7,0000.0,0000.12,0001.56,0000.03
2022-12-28 13:01:00,,0807.4,5.00,0.00,22.9,21.4,00.0,31.9,24.6,14.8,0000.0,0000.13,0001.56,0000.03
2022-12-28 13:02:00,,0807.4,5.01,0.00,22.9,21.3,00.0,31.9,24.6,14.7,0000.0,0000.13,0001.56,0000.03
2022-12-28 13:03:00,,0807.4,5.00,0.00,22.8,21.3,00.0,31.8,24.5,14.7,0000.0,0000.11,0001.46,0000.03
2022-12-28 13:04:00,,0807.4,5.00,0.00,22.8,21.3,00.0,31.8,24.4,14.6,0000.0,0000.11,0001.45,0000.03
2022-12-28 13:05:00,,0807.4,4.99,0.00,22.8,21.4,00.0,31.8,24.4,14.7,0000.0,0000.10,0000.93,0000.03
2022-12-28 13:06:00,,0807.4,5.00,0.00,22.8,21.4,00.0,31.8,24.4,14.7,0000.0,0000.10,0000.23,0000.03
2022-12-28 13:07:00,,0807.3,5.00,0.00,22.8,21.4,00.0,31.8,24.5,14.7,0000.0,0000.10,0000.23,0000.03
2022-12-28 13:08:00,,0807.3,5.00,0.00,22.7,21.3,00.0,31.8,24.4,14.7,0000.0,0000.09,0000.20,0000.02
2022-12-28 13:09:00,,0807.3,4.99,0.00,22.7,21.2,00.0,31.8,24.4,14.7,0000.0,0000.07,0000.19,0000.02
2022-12-28 13:10:00,,0807.3,5.01,0.00,22.7,21.2,00.0,31.7,24.3,14.8,0000.0,0000.08,0000.19,0000.02
2022-12-28 13:11:00,,0807.3,5.01,0.00,22.7,21.2,00.0,31.7,24.3,15.0,0000.0,0000.08,0000.20,0000.02
2022-12-28 13:12:00,,0807.3,5.01,0.00,22.6,21.2,00.0,31.7,24.2,15.2,0000.0,0000.07,0000.18,0000.02
2022-12-28 13:13:00,,0807.4,5.00,0.00,22.6,21.2,00.0,31.7,24.2,15.2,0000.0,0000.06,0000.17,0000.02
2022-12-28 13:14:00,,0807.3,5.00,0.00,22.6,21.2,00.0,31.7,24.3,15.1,0000.0,0000.06,0000.17,0000.02
2022-12-28 13:15:00,,0807.2,4.99,0.00,22.6,21.2,00.0,31.7,24.2,15.3,0000.0,0000.05,0000.15,0000.02
2022-12-28 13:16:00,,0807.2,4.99,0.00,22.6,21.2,00.0,31.6,24.2,15.2,0000.0,0000.05,0000.15,0000.02
2022-12-28 13:17:00,,0807.1,4.99,0.00,22.5,21.2,00.0,31.6,24.2,15.1,0000.0,0000.06,0000.15,0000.02
2022-12-28 13:18:00,,0807.1,5.00,0.00,22.5,21.2,00.0,31.6,24.2,15.1,0000.0,0000.05,0000.15,0000.02
2022-12-28 13:19:00,,0807.1,5.00,0.00,22.5,21.2,00.0,31.6,24.2,14.9,0000.0,0000.05,0000.15,0000.02
2022-12-28 13:20:00,,0807.1,4.99,0.00,22.5,21.2,00.0,31.6,24.2,14.9,0000.0,0000.04,0000.08,0000.02
2022-12-28 13:21:00,,0807.2,5.00,0.00,22.5,21.2,00.0,31.6,24.2,14.9,0000.0,0000.04,0000.06,0000.02
2022-12-28 13:22:00,,0807.2,5.01,0.00,22.5,21.2,00.0,31.5,24.2,15.0,0000.0,0000.03,0000.05,0000.03
2022-12-28 13:23:00,,0807.2,5.00,0.00,22.5,21.2,00.0,31.5,24.2,15.2,0000.0,0000.04,0000.07,0000.03
2022-12-28 13:24:00,,0807.2,5.00,0.00,22.5,21.3,00.0,31.5,24.2,15.1,0000.0,0000.06,0000.31,0000.03
2022-12-28 13:25:00,,0807.1,5.01,0.00,22.6,21.3,00.0,31.5,24.2,15.2,0000.0,0000.08,0000.46,0000.03
2022-12-28 13:26:00,,0807.1,5.00,0.00,22.6,21.3,00.0,31.5,24.3,15.0,0000.0,0000.08,0000.46,0000.03
2022-12-28 13:27:00,,0807.3,5.00,0.00,22.6,21.3,00.0,31.5,24.3,15.1,0000.0,0000.08,0000.46,0000.03
2022-12-28 13:28:00,,0807.3,5.01,0.00,22.6,21.3,00.0,31.5,24.3,15.2,0000.0,0000.08,0000.46,0000.03
2022-12-28 13:29:00,,0807.2,5.01,0.00,22.6,21.4,00.0,31.5,24.3,15.1,0000.0,0000.08,0000.46,0000.03
2022-12-28 13:30:00,,0807.2,5.00,0.00,22.6,21.4,00.0,31.5,24.2,14.8,0000.0,0000.08,0000.46,0000.03
2022-12-28 13:31:00,,0807.2,5.00,0.00,22.6,21.4,00.0,31.5,24.3,14.8,0000.0,0000.08,0000.54,0000.03
2022-12-28 13:32:00,,0807.3,5.00,0.00,22.6,21.4,00.0,31.5,24.3,14.9,0000.0,0000.09,0000.64,0000.03
2022-12-28 13:33:00,,0807.2,5.00,0.00,22.6,21.4,00.0,31.5,24.3,14.9,0000.0,0000.10,0000.65,0000.03
2022-12-28 13:34:00,,0807.2,4.99,0.00,22.6,21.4,00.0,31.5,24.3,14.8,0000.0,0000.09,0000.62,0000.02
2022-12-28 13:35:00,,0807.2,5.00,0.00,22.6,21.4,00.0,31.5,24.3,15.1,0000.0,0000.08,0000.37,0000.03
2022-12-28 13:36:00,,0807.2,5.01,0.00,22.6,21.4,00.0,31.5,24.3,15.0,0000.0,0000.08,0000.44,0000.03
2022-12-28 13:37:00,,0807.3,4.99,0.00,22.6,21.4,00.0,31.5,24.3,14.9,0000.0,0000.08,0000.45,0000.04
2022-12-28 13:38:00,,0807.3,5.00,0.00,22.6,21.4,00.0,31.5,24.2,15.0,0000.0,0000.11,0000.49,0000.05
2022-12-28 13:39:00,,0807.3,5.00,0.00,22.6,21.4,00.0,31.5,24.3,15.1,0000.0,0000.12,0000.51,0000.06
2022-12-28 13:40:00,,0807.3,5.00,0.00,22.7,21.4,00.0,31.5,24.3,15.3,0000.0,0000.14,0000.53,0000.08
2022-12-28 13:41:00,,0807.3,5.00,0.00,22.7,21.4,00.0,31.5,24.3,15.3,0000.0,0000.16,0000.55,0000.09
2022-12-28 13:42:00,,0807.4,5.00,0.00,22.7,21.4,00.0,31.5,24.4,14.9,0000.0,0000.16,0000.60,0000.10
2022-12-28 13:43:00,,0807.4,5.00,0.00,22.7,21.4,00.0,31.5,24.5,14.8,0000.0,0000.16,0000.54,0000.11
2022-12-28 13:44:00,,0807.3,5.00,0.00,22.7,21.4,00.0,31.5,24.4,14.8,0000.0,0000.16,0000.53,0000.11
2022-12-28 13:45:00,,0807.2,5.01,0.00,22.7,21.3,00.0,31.5,24.4,14.6,0000.0,0000.16,0000.53,0000.11
2022-12-28 13:46:00,,0807.4,5.01,0.00,22.7,21.3,00.0,31.6,24.4,14.4,0000.0,0000.15,0000.52,0000.11
2022-12-28 13:47:00,,0807.4,4.99,0.00,22.7,21.3,00.0,31.5,24.4,14.6,0000.0,0000.14,0000.36,0000.10
2022-12-28 13:48:00,,0807.4,5.00,0.00,22.7,21.3,00.0,31.5,24.4,14.5,0000.0,0000.13,0000.36,0000.10
2022-12-28 13:49:00,,0807.6,5.00,0.00,22.7,21.3,00.0,31.6,24.3,14.8,0000.0,0000.13,0000.41,0000.09
2022-12-28 13:50:00,,0807.6,5.00,0.00,22.6,21.3,00.0,31.6,24.3,15.8,0000.0,0000.17,0000.49,0000.12
2022-12-28 13:51:00,,0807.4,5.00,0.00,22.7,21.3,00.0,31.6,24.4,16.2,0000.0,0000.29,0000.68,0000.20
2022-12-28 13:52:00,,0807.5,5.00,0.00,22.7,21.3,00.0,31.5,24.5,16.2,0000.0,0000.39,0000.85,0000.27
2022-12-28 13:53:00,,0807.5,5.00,0.00,22.7,21.3,00.0,31.5,24.4,16.3,0000.0,0000.49,0000.87,0000.36
2022-12-28 13:54:00,,0807.7,5.00,0.00,22.7,21.3,00.0,31.5,24.4,16.4,0000.0,0000.59,0000.95,0000.45
2022-12-28 13:55:00,,0807.6,5.00,0.00,22.7,21.3,00.0,31.5,24.3,16.5,0000.0,0000.73,0001.16,0000.56
2022-12-28 13:56:00,,0807.6,5.00,0.00,22.7,21.4,00.0,31.5,24.3,16.5,0000.0,0000.87,0001.35,0000.67
2022-12-28 13:57:00,,0807.6,4.99,0.00,22.7,21.4,00.0,31.6,24.4,16.3,0000.0,0000.99,0001.48,0000.77
2022-12-28 13:58:00,,0807.7,5.00,0.00,22.7,21.4,00.0,31.5,24.4,16.3,0000.0,0001.09,0001.57,0000.88
2022-12-28 13:59:00,,0807.6,5.00,0.00,22.7,21.4,00.0,31.6,24.4,16.3,0000.0,0001.21,0001.74,0000.99
